| time (UTC) | temp F | wind direction | speed knots | gust knots | rain 1hr in | rain 24hr in | rain mn in | humidity % | barometer mb |
| 20260504045823 | 56 | 247 | 0.9 | 0.9 | 0.00 | 0.00 | 0.00 | 67 | 1003.9 |
| 20260504045321 | 56 | 278 | 0.9 | 1.7 | 0.00 | 0.00 | 0.00 | 66 | 1003.8 |
| 20260504044821 | 56 | 244 | 0.0 | 1.7 | 0.00 | 0.00 | 0.00 | 66 | 1003.8 |
| 20260504044323 | 56 | 274 | 0.9 | 0.9 | 0.00 | 0.00 | 0.00 | 66 | 1003.8 |
| 20260504043821 | 56 | 276 | 0.9 | 2.6 | 0.00 | 0.00 | 0.00 | 66 | 1003.7 |
| 20260504043321 | 56 | 293 | 1.7 | 4.3 | 0.00 | 0.00 | 0.00 | 67 | 1003.8 |
| 20260504042824 | 56 | 260 | 0.9 | 1.7 | 0.00 | 0.00 | 0.00 | 66 | 1003.8 |
| 20260504042321 | 56 | 299 | 0.0 | 0.9 | 0.00 | 0.00 | 0.00 | 65 | 1003.8 |
| 20260504041821 | 57 | 275 | 0.0 | 0.0 | 0.00 | 0.00 | 0.00 | 65 | 1003.7 |
| 20260504041321 | 57 | 253 | 0.0 | 1.7 | 0.00 | 0.00 | 0.00 | 64 | 1003.7 |
| 20260504040821 | 57 | 318 | 0.0 | 0.0 | 0.00 | 0.00 | 0.00 | 64 | 1003.7 |
| 20260504040321 | 57 | 269 | 0.0 | 1.7 | 0.00 | 0.00 | 0.00 | 64 | 1003.8 |
| 20260504035821 | 57 | 267 | 0.0 | 0.0 | 0.00 | 0.00 | 0.00 | 64 | 1003.8 |
| 20260504035251 | 57 | 246 | 0.0 | 0.0 | 0.00 | 0.00 | 0.00 | 64 | 1003.8 |
| 20260504034751 | 57 | 246 | 0.0 | 0.0 | 0.00 | 0.00 | 0.00 | 64 | 1003.9 |
| 20260504034253 | 57 | 226 | 0.0 | 0.0 | 0.00 | 0.00 | 0.00 | 63 | 1003.9 |
| 20260504033751 | 57 | 256 | 0.0 | 0.0 | 0.00 | 0.00 | 0.00 | 63 | 1004.0 |
| 20260504033251 | 57 | 256 | 0.0 | 0.0 | 0.00 | 0.00 | 0.00 | 63 | 1004.0 |
| 20260504032751 | 57 | 257 | 0.9 | 0.9 | 0.00 | 0.00 | 0.00 | 64 | 1004.0 |
| 20260504032251 | 57 | 257 | 0.9 | 1.7 | 0.00 | 0.00 | 0.00 | 64 | 1004.0 |
| 20260504031751 | 57 | 257 | 0.9 | 0.0 | 0.00 | 0.00 | 0.00 | 64 | 1004.1 |
| 20260504031251 | 57 | 247 | 0.0 | 0.0 | 0.00 | 0.00 | 0.00 | 65 | 1004.0 |
| 20260504030751 | 57 | 247 | 0.0 | 0.0 | 0.00 | 0.00 | 0.00 | 64 | 1004.1 |
| 20260504030251 | 56 | 262 | 0.0 | 4.3 | 0.00 | 0.00 | 0.00 | 64 | 1004.1 |
| 20260504025721 | 56 | 274 | 0.9 | 0.9 | 0.00 | 0.00 | 0.00 | 65 | 1004.1 |
| 20260504025151 | 56 | 294 | 0.9 | 1.7 | 0.00 | 0.00 | 0.00 | 65 | 1004.1 |
| 20260504024621 | 56 | 246 | 0.0 | 0.0 | 0.00 | 0.00 | 0.00 | 64 | 1004.1 |
| 20260504024121 | 56 | 264 | 0.0 | 0.0 | 0.00 | 0.00 | 0.00 | 64 | 1004.0 |
| 20260504023621 | 57 | 264 | 0.0 | 0.0 | 0.00 | 0.00 | 0.00 | 64 | 1004.0 |
| 20260504023050 | 57 | 264 | 0.0 | 0.0 | 0.00 | 0.00 | 0.00 | 62 | 1004.1 |
| 20260504022552 | 57 | 264 | 0.0 | 0.0 | 0.00 | 0.00 | 0.00 | 62 | 1004.1 |
| 20260504022050 | 57 | 264 | 0.0 | 0.0 | 0.00 | 0.00 | 0.00 | 62 | 1004.1 |
| 20260504021520 | 58 | 264 | 0.0 | 0.0 | 0.00 | 0.00 | 0.00 | 61 | 1004.0 |
| 20260504021020 | 58 | 264 | 0.0 | 0.0 | 0.00 | 0.00 | 0.00 | 60 | 1004.0 |
| 20260504020520 | 58 | 264 | 0.0 | 0.0 | 0.00 | 0.00 | 0.00 | 59 | 1004.0 |
| 20260504020020 | 59 | 264 | 0.0 | 0.0 | 0.00 | 0.00 | 0.00 | 58 | 1003.9 |
| 20260504015450 | 59 | 264 | 0.0 | 0.0 | 0.00 | 0.00 | 0.00 | 57 | 1003.9 |
| 20260504014950 | 60 | 264 | 0.0 | 0.0 | 0.00 | 0.00 | 0.00 | 56 | 1003.9 |
| 20260504014450 | 60 | 264 | 0.0 | 0.0 | 0.00 | 0.00 | 0.00 | 55 | 1003.9 |
| 20260504013950 | 61 | 264 | 0.0 | 0.0 | 0.00 | 0.00 | 0.00 | 54 | 1003.8 |
| 20260504013420 | 61 | 264 | 0.0 | 0.0 | 0.00 | 0.00 | 0.00 | 53 | 1003.7 |
| 20260504012920 | 62 | 264 | 0.0 | 0.0 | 0.00 | 0.00 | 0.00 | 52 | 1003.7 |
| 20260504012420 | 62 | 264 | 0.0 | 0.0 | 0.00 | 0.00 | 0.00 | 51 | 1003.7 |
| 20260504011920 | 63 | 264 | 0.0 | 0.0 | 0.00 | 0.00 | 0.00 | 50 | 1003.6 |
| 20260504011420 | 63 | 264 | 0.0 | 0.0 | 0.00 | 0.00 | 0.00 | 50 | 1003.5 |
| 20260504010920 | 63 | 264 | 0.0 | 0.0 | 0.00 | 0.00 | 0.00 | 49 | 1003.5 |
| 20260504010350 | 64 | 264 | 0.0 | 0.0 | 0.00 | 0.00 | 0.00 | 49 | 1003.4 |
| 20260504005850 | 64 | 282 | 0.0 | 0.0 | 0.00 | 0.00 | 0.00 | 48 | 1003.4 |
| 20260504005350 | 64 | 289 | 0.9 | 4.3 | 0.00 | 0.00 | 0.00 | 48 | 1003.4 |
| 20260504004850 | 65 | 261 | 0.0 | 0.0 | 0.00 | 0.00 | 0.00 | 46 | 1003.3 |
| 20260504004350 | 65 | 295 | 0.9 | 1.7 | 0.00 | 0.00 | 0.00 | 46 | 1003.3 |
| 20260504003850 | 65 | 278 | 0.9 | 1.7 | 0.00 | 0.00 | 0.00 | 46 | 1003.4 |
| 20260504003350 | 65 | 287 | 0.9 | 1.7 | 0.00 | 0.00 | 0.00 | 45 | 1003.4 |
| 20260504002850 | 65 | 295 | 0.9 | 2.6 | 0.00 | 0.00 | 0.00 | 45 | 1003.4 |
| 20260504002350 | 66 | 281 | 1.7 | 2.6 | 0.00 | 0.00 | 0.00 | 46 | 1003.4 |
| 20260504001850 | 66 | 296 | 0.9 | 2.6 | 0.00 | 0.00 | 0.00 | 44 | 1003.4 |
| 20260504001350 | 66 | 297 | 2.6 | 1.7 | 0.00 | 0.00 | 0.00 | 45 | 1003.3 |
| 20260504000850 | 66 | 328 | 0.0 | 0.0 | 0.00 | 0.00 | 0.00 | 44 | 1003.3 |
| 20260504000354 | 66 | 323 | 0.0 | 0.0 | 0.00 | 0.00 | 0.00 | 44 | 1003.3 |
| 20260503235820 | 66 | 277 | 2.6 | 2.6 | 0.00 | 0.00 | 0.00 | 44 | 1003.4 |
| 20260503235320 | 66 | 277 | 1.7 | 2.6 | 0.00 | 0.00 | 0.00 | 43 | 1003.4 |
| 20260503234750 | 67 | 288 | 5.2 | 6.1 | 0.00 | 0.00 | 0.00 | 42 | 1003.2 |
| 20260503234251 | 67 | 305 | 4.3 | 4.3 | 0.00 | 0.00 | 0.00 | 43 | 1003.4 |
| 20260503233750 | 67 | 285 | 1.7 | 5.2 | 0.00 | 0.00 | 0.00 | 42 | 1003.4 |
| 20260503233250 | 67 | 289 | 4.3 | 6.1 | 0.00 | 0.00 | 0.00 | 42 | 1003.4 |
| 20260503232721 | 67 | 297 | 4.3 | 5.2 | 0.00 | 0.00 | 0.00 | 40 | 1003.5 |
| 20260503232150 | 67 | 298 | 1.7 | 4.3 | 0.00 | 0.00 | 0.00 | 40 | 1003.4 |
| 20260503231621 | 68 | 286 | 2.6 | 7.0 | 0.00 | 0.00 | 0.00 | 41 | 1003.5 |
| 20260503231120 | 68 | 293 | 2.6 | 5.2 | 0.00 | 0.00 | 0.00 | 40 | 1003.6 |
| 20260503230550 | 68 | 288 | 4.3 | 7.8 | 0.00 | 0.00 | 0.00 | 40 | 1003.5 |
| 20260503230050 | 68 | 280 | 4.3 | 7.0 | 0.00 | 0.00 | 0.00 | 40 | 1003.7 |
| 20260503225520 | 68 | 299 | 5.2 | 7.8 | 0.00 | 0.00 | 0.00 | 40 | 1003.6 |
| 20260503225022 | 68 | 267 | 4.3 | 7.0 | 0.00 | 0.00 | 0.00 | 41 | 1003.6 |
| 20260503224449 | 68 | 274 | 4.3 | 5.2 | 0.00 | 0.00 | 0.00 | 41 | 1003.7 |
| 20260503223949 | 68 | 285 | 5.2 | 7.0 | 0.00 | 0.00 | 0.00 | 42 | 1003.7 |
| 20260503223419 | 67 | 282 | 5.2 | 7.0 | 0.00 | 0.00 | 0.00 | 41 | 1003.7 |
| 20260503222919 | 67 | 283 | 4.3 | 7.8 | 0.00 | 0.00 | 0.00 | 40 | 1003.7 |
| 20260503222419 | 67 | 280 | 4.3 | 7.8 | 0.00 | 0.00 | 0.00 | 40 | 1003.8 |
| 20260503221919 | 67 | 278 | 2.6 | 4.3 | 0.00 | 0.00 | 0.00 | 41 | 1003.8 |
| 20260503221419 | 67 | 273 | 4.3 | 10.4 | 0.00 | 0.00 | 0.00 | 40 | 1003.9 |
| 20260503220919 | 67 | 285 | 5.2 | 7.8 | 0.00 | 0.00 | 0.00 | 40 | 1003.9 |
| 20260503220419 | 67 | 288 | 6.1 | 7.8 | 0.00 | 0.00 | 0.00 | 40 | 1004.0 |
| 20260503215919 | 67 | 283 | 5.2 | 7.8 | 0.00 | 0.00 | 0.00 | 40 | 1003.8 |
| 20260503215419 | 67 | 270 | 4.3 | 6.1 | 0.00 | 0.00 | 0.00 | 40 | 1004.2 |
| 20260503214849 | 67 | 265 | 5.2 | 7.0 | 0.00 | 0.00 | 0.00 | 41 | 1004.0 |
| 20260503214349 | 67 | 295 | 5.2 | 7.8 | 0.00 | 0.00 | 0.00 | 40 | 1004.1 |
| 20260503213849 | 67 | 277 | 6.1 | 11.3 | 0.00 | 0.00 | 0.00 | 40 | 1004.3 |
| 20260503213349 | 67 | 280 | 4.3 | 5.2 | 0.00 | 0.00 | 0.00 | 40 | 1004.4 |
| 20260503212849 | 67 | 279 | 6.1 | 10.4 | 0.00 | 0.00 | 0.00 | 40 | 1004.4 |
| 20260503212319 | 67 | 278 | 5.2 | 11.3 | 0.00 | 0.00 | 0.00 | 40 | 1004.5 |
| 20260503211749 | 67 | 283 | 2.6 | 10.4 | 0.00 | 0.00 | 0.00 | 39 | 1004.6 |
| 20260503211252 | 67 | 271 | 4.3 | 7.8 | 0.00 | 0.00 | 0.00 | 40 | 1004.7 |
| 20260503210749 | 67 | 271 | 6.1 | 10.4 | 0.00 | 0.00 | 0.00 | 40 | 1004.5 |
| 20260503210249 | 66 | 287 | 5.2 | 6.1 | 0.00 | 0.00 | 0.00 | 40 | 1004.9 |
| 20260503205749 | 66 | 277 | 6.1 | 13.9 | 0.00 | 0.00 | 0.00 | 40 | 1004.9 |
| 20260503205249 | 66 | 279 | 6.1 | 7.8 | 0.00 | 0.00 | 0.00 | 40 | 1005.0 |
| 20260503204719 | 66 | 277 | 6.1 | 10.4 | 0.00 | 0.00 | 0.00 | 41 | 1004.7 |
| 20260503204219 | 66 | 282 | 6.1 | 7.8 | 0.00 | 0.00 | 0.00 | 44 | 1005.3 |
| 20260503203649 | 65 | 275 | 2.6 | 5.2 | 0.00 | 0.00 | 0.00 | 45 | 1005.4 |
| 20260503203119 | 65 | 275 | 4.3 | 7.8 | 0.00 | 0.00 | 0.00 | 45 | 1005.5 |
| 20260503202549 | 65 | 276 | 6.1 | 7.8 | 0.00 | 0.00 | 0.00 | 47 | 1005.7 |
| 20260503202019 | 64 | 259 | 2.6 | 4.3 | 0.00 | 0.00 | 0.00 | 46 | 1005.8 |
| 20260503201521 | 64 | 252 | 5.2 | 7.0 | 0.00 | 0.00 | 0.00 | 48 | 1006.0 |
| 20260503200949 | 64 | 270 | 4.3 | 6.1 | 0.00 | 0.00 | 0.00 | 46 | 1006.2 |
| 20260503200449 | 64 | 265 | 5.2 | 10.4 | 0.00 | 0.00 | 0.00 | 47 | 1006.4 |
| 20260503195949 | 64 | 252 | 5.2 | 6.1 | 0.00 | 0.00 | 0.00 | 47 | 1006.5 |
| 20260503195449 | 63 | 279 | 4.3 | 7.8 | 0.00 | 0.00 | 0.00 | 49 | 1006.6 |
| 20260503194949 | 63 | 251 | 6.1 | 11.3 | 0.00 | 0.00 | 0.00 | 47 | 1006.8 |
| 20260503194449 | 63 | 272 | 5.2 | 10.4 | 0.00 | 0.00 | 0.00 | 47 | 1006.9 |
| 20260503193949 | 62 | 274 | 5.2 | 7.0 | 0.00 | 0.00 | 0.00 | 46 | 1006.8 |
| 20260503193449 | 62 | 283 | 6.1 | 8.7 | 0.00 | 0.00 | 0.00 | 47 | 1006.9 |
| 20260503192948 | 62 | 277 | 4.3 | 8.7 | 0.00 | 0.00 | 0.00 | 45 | 1006.9 |
| 20260503192448 | 62 | 256 | 4.3 | 8.7 | 0.00 | 0.00 | 0.00 | 44 | 1006.9 |
| 20260503191948 | 63 | 267 | 6.1 | 7.8 | 0.00 | 0.00 | 0.00 | 43 | 1006.9 |
| 20260503191418 | 63 | 263 | 2.6 | 5.2 | 0.00 | 0.00 | 0.00 | 42 | 1006.9 |
| 20260503190918 | 62 | 281 | 5.2 | 7.0 | 0.00 | 0.00 | 0.00 | 48 | 1006.9 |
| 20260503190418 | 62 | 241 | 6.1 | 8.7 | 0.00 | 0.00 | 0.00 | 43 | 1006.9 |
| 20260503185918 | 61 | 283 | 5.2 | 10.4 | 0.00 | 0.00 | 0.00 | 45 | 1007.0 |
| 20260503185418 | 61 | 243 | 4.3 | 5.2 | 0.00 | 0.00 | 0.00 | 45 | 1007.0 |
| 20260503184848 | 61 | 255 | 6.1 | 7.0 | 0.00 | 0.00 | 0.00 | 44 | 1007.0 |
| 20260503184348 | 61 | 260 | 6.1 | 7.0 | 0.00 | 0.00 | 0.00 | 45 | 1007.1 |
| 20260503183848 | 60 | 273 | 6.1 | 8.7 | 0.00 | 0.00 | 0.00 | 45 | 1007.1 |
| 20260503183348 | 60 | 251 | 5.2 | 10.4 | 0.00 | 0.00 | 0.00 | 46 | 1007.3 |
| 20260503182848 | 60 | 255 | 6.1 | 10.4 | 0.00 | 0.00 | 0.00 | 48 | 1007.3 |
| 20260503182348 | 60 | 243 | 4.3 | 5.2 | 0.00 | 0.00 | 0.00 | 47 | 1007.4 |
| 20260503181818 | 60 | 258 | 5.2 | 7.8 | 0.00 | 0.00 | 0.00 | 49 | 1007.5 |
| 20260503181248 | 60 | 259 | 5.2 | 7.0 | 0.00 | 0.00 | 0.00 | 48 | 1007.6 |
| 20260503180748 | 61 | 252 | 7.0 | 11.3 | 0.00 | 0.00 | 0.00 | 48 | 1007.8 |
| 20260503180250 | 61 | 254 | 5.2 | 7.0 | 0.00 | 0.00 | 0.00 | 51 | 1007.9 |
| 20260503175748 | 60 | 264 | 4.3 | 6.1 | 0.00 | 0.00 | 0.00 | 48 | 1008.1 |
| 20260503175248 | 60 | 263 | 4.3 | 5.2 | 0.00 | 0.00 | 0.00 | 50 | 1008.3 |
| 20260503174719 | 61 | 248 | 5.2 | 7.0 | 0.00 | 0.00 | 0.00 | 53 | 1008.4 |
| 20260503174218 | 60 | 275 | 4.3 | 5.2 | 0.00 | 0.00 | 0.00 | 52 | 1008.5 |
| 20260503173648 | 59 | 258 | 5.2 | 7.0 | 0.00 | 0.00 | 0.00 | 54 | 1008.6 |
| 20260503173148 | 58 | 268 | 6.1 | 7.8 | 0.00 | 0.00 | 0.00 | 55 | 1008.8 |
| 20260503172648 | 58 | 266 | 7.0 | 12.2 | 0.00 | 0.00 | 0.00 | 56 | 1009.0 |
| 20260503172148 | 57 | 257 | 5.2 | 7.8 | 0.00 | 0.00 | 0.00 | 61 | 1009.3 |
| 20260503171648 | 56 | 274 | 5.2 | 6.1 | 0.00 | 0.00 | 0.00 | 60 | 1009.5 |
| 20260503171148 | 55 | 251 | 4.3 | 6.1 | 0.00 | 0.00 | 0.00 | 60 | 1009.5 |
| 20260503170648 | 55 | 262 | 5.2 | 7.8 | 0.00 | 0.00 | 0.00 | 60 | 1009.7 |
| 20260503170148 | 56 | 268 | 5.2 | 7.0 | 0.00 | 0.00 | 0.00 | 60 | 1009.7 |
| 20260503150717 | 57 | 274 | 4.3 | 7.8 | 0.00 | 0.00 | 0.00 | 54 | 1011.1 |
| 20260503150217 | 57 | 281 | 5.2 | 7.0 | 0.00 | 0.00 | 0.00 | 54 | 1011.1 |
| 20260503131417 | 52 | 270 | 4.3 | 7.8 | 0.00 | 0.00 | 0.00 | 57 | 1011.9 |
| 20260503130917 | 52 | 281 | 4.3 | 10.4 | 0.00 | 0.00 | 0.00 | 57 | 1011.9 |
| 20260503130417 | 52 | 281 | 2.6 | 5.2 | 0.00 | 0.00 | 0.00 | 57 | 1011.9 |
| 20260503110716 | 49 | 278 | 4.3 | 6.1 | 0.00 | 0.00 | 0.00 | 57 | 1011.6 |
| 20260503110216 | 49 | 292 | 2.6 | 7.8 | 0.00 | 0.00 | 0.00 | 57 | 1011.7 |
| 20260503090319 | 47 | 287 | 1.7 | 2.6 | 0.00 | 0.00 | 0.00 | 58 | 1012.4 |
| 20260503081616 | 47 | 284 | 2.6 | 5.2 | 0.00 | 0.00 | 0.00 | 59 | 1012.7 |
| 20260503081116 | 47 | 268 | 0.9 | 4.3 | 0.00 | 0.00 | 0.00 | 59 | 1012.7 |
| 20260503080616 | 46 | 272 | 1.7 | 2.6 | 0.00 | 0.00 | 0.00 | 59 | 1012.9 |
| 20260503072445 | 45 | 288 | 1.7 | 1.7 | 0.00 | 0.00 | 0.00 | 63 | 1012.9 |
| 20260503071915 | 45 | 274 | 0.0 | 1.7 | 0.00 | 0.00 | 0.00 | 63 | 1013.0 |
| 20260503071345 | 44 | 292 | 1.7 | 4.3 | 0.00 | 0.00 | 0.00 | 63 | 1013.0 |
| 20260503070845 | 44 | 274 | 0.0 | 0.9 | 0.00 | 0.00 | 0.00 | 63 | 1013.0 |
| 20260503070345 | 44 | 271 | 0.0 | 0.0 | 0.00 | 0.00 | 0.00 | 63 | 1013.1 |
| 20260503060115 | 44 | 254 | 0.0 | 0.0 | 0.00 | 0.00 | 0.00 | 64 | 1013.5 |
| 20260503055045 | 44 | 246 | 0.0 | 0.0 | 0.00 | 0.00 | 0.00 | 63 | 1013.7 |
| 20260503054515 | 44 | 246 | 0.0 | 0.0 | 0.00 | 0.00 | 0.00 | 63 | 1013.6 |
| 20260503054015 | 44 | 270 | 0.0 | 0.9 | 0.00 | 0.00 | 0.00 | 63 | 1013.7 |
| 20260503053515 | 44 | 264 | 0.9 | 0.9 | 0.00 | 0.00 | 0.00 | 63 | 1013.7 |
| 20260503053015 | 44 | 270 | 0.0 | 2.6 | 0.00 | 0.00 | 0.00 | 64 | 1013.7 |
| 20260503052445 | 44 | 256 | 0.9 | 0.9 | 0.00 | 0.00 | 0.00 | 64 | 1013.8 |
| 20260503051945 | 44 | 253 | 0.0 | 0.0 | 0.00 | 0.00 | 0.00 | 63 | 1013.8 |
| 20260503051415 | 44 | 258 | 0.0 | 0.0 | 0.00 | 0.00 | 0.00 | 63 | 1013.8 |
| 20260503050915 | 45 | 266 | 0.9 | 1.7 | 0.00 | 0.00 | 0.00 | 64 | 1013.9 |
| 20260503050415 | 45 | 240 | 0.0 | 0.0 | 0.00 | 0.00 | 0.00 | 63 | 1013.9 |
| 20260503045915 | 45 | 281 | 0.9 | 1.7 | 0.00 | 0.00 | 0.00 | 64 | 1014.0 |